Вернуться в каталог

FENGYUN 1C DEB

АктивенPO
NORAD 31498·DEBRIS·🇨🇳 China

Запущен May 10, 1999 с Taiyuan Satellite Launch Center

Loading…

Ближайшие Пролёты (ближайшие 24 часа)

TLE

СвежийSource: Space-Track

Эпоха: Sep 14, 2026, 07:10 UTC

1 31498U 99025BWM 26257.29927435  .00001326  00000-0  11355-2 0  9992
2 31498  98.4991 204.8504 0217805 119.5409 242.7652 13.78117292965281

Отслеживайте FENGYUN 1C DEB в реальном времени с AllMySat

Download on the App Store